Location: Bonaustraße
(48.4603°N, 11.9280°E)
Time: 15:00:45
(UTC+02:00)

AO-92 - Pass Details

Date: 01 August 2021
Orbit: 483 x 494 km, 97.4° (Epoch: 27 September)

Event Time Altitude Azimuth Distance (km) Brightness Sun altitude
Exits shadow 22:48:24 34° 136° (SE) 818 ? -15.8°
Maximum altitude 22:49:42 57° 73° (ENE) 577 ? -15.9°
Drops below altitude 10° 22:53:15 10° 355° (N) 1,677 ? -16.3°
Sets 22:55:20 0° 351° (N) 2,564 ? -16.5°
